Погода Чулпаново

Погода Чулпаново : погода сейчас, прогноз погоды и архив. Всё, что Вы хотите узнать о погоде Чулпаново!

Поиск расширенной информации на нашем сайте:

Полезная информация: Читайте болюсы хуато инструкция здесь!

Другие новости

Новости СМИ2

Главная страница сайта

Новости сайта

02.10.2013

Напоминаем, что на нашем новом сайте вы можете получить высокодетализированные прогнозы погоды по пунктам России, СНГ и мира (включающие важные для авиации метеовеличины, такие как направление и скорость ветра, видимость, явления погоды, количество и форма облачности, нижняя и верхняя граница облачности), а также ознакомиться с разнообразными материалами по авиационной метеорологии и подборкой полезных ссылок на эту тему.

Сайт Метеоцентр.Азия посвящён разработке технологий оптимизации авиаметеорологического обслуживания, включая проектирование и перспективное создание нескольких автоматизированных авиаметеорологических систем:
- система выпуска высокодетальных прогностических карт явлений погоды для нижнего воздушного пространства по России и ближнему зарубежью;
- система верификации прогнозов TAF (выпускаемых синоптиками официальных АМСГ РФ и ближнего зарубежья) и AUTOTAF (выпускаемых сайтом Метеоцентр.Азия) - выявление ошибок, онлайн-сопоставление с фактической погодой METAR, автоматическое внесение коррективов в прогнозы при резком отклонении фактической погоды от прогноза, подсчёт оправдываемости прогнозов по элементам и в целом;
- система обработки, анализа и отображения авиаметеорологической информации для применения провайдерами метеорологической информации.

Рекомендуем: новости Бердичева

Погода Чулпаново - сегодня

Время (UTC), дата Ветер
(°,м/с) 
Видим.   Явления Облачность Т
(°С)
Тd
(°С)
f(%) Тe
(°С)
Pmin
(гПа)
dP
(гПа)
Po
(мм)
O2
(г/м3)
Тmin Tmax R s Состояние
почвы
21 22.03.17 050 (СВ) 20000 м    5/0 верхняя 
[Ci fib]
-7.3 -10.5 78 -9  1025.2  1.1  761  316           
00 23.03.17 120 (ЮВ) 20000 м    10/0 средняя, верхняя 
[Ac trans|Ci sp]
-5.2 -9 75 -8  1024.5  -0.6  761  313           
03 23.03.17 130 (ЮВ) 20000 м    10/0 средняя 
[Ac As]
-4 -6.9 80 -5  1024.6  0.2  761  312  -7.4      39  неравномерный
мокрый или
старый снег
100% 
06 23.03.17 160 (Ю) 20000 м    10/0 средняя 
[Ac As]
-2.1 -4.1 86 -5  1024.2  -0.4  761  309           
09 23.03.17 170 (Ю) 20000 м  {снег}  10/0 средняя 
[Ac As]
-0.3 -2.6 84 -3  1023.2  -0.9  760  307           
12 23.03.17 180 (Ю) 20000 м  {снег}  10/0 средняя 
[Ac As]
+0.2 -1.9 86 -3  1022.2  -0.9  759  306           
15 23.03.17 210 (ЮЗ) 20000 м    10/0 средняя 
[Ac As]
+0.6 -0.9 90 -1  1021.5  -0.7  759  305    +0.6  0.0     
18 23.03.17 210 (ЮЗ) 20000 м    10/0 средняя 
[Ac As]
+0.6 -1.2 88 -2  1021.2  -0.3  759  305           
21 23.03.17 220 (ЮЗ) 4000 м  слаб. дождь со снегом  10/0 средняя 
[As op]
+0.1 -0.6 95 -2  1021.1  0.1  758  306           
00 24.03.17 290 (З) 20000 м  {снег, дождь}  10/0 средняя 
[As op]
+0.5 -0.1 96 1021.4  0.3  759  305           
03 24.03.17 240 (ЮЗ) 20000 м    3/0 средняя 
[Ac trans]
-1 -1.7 95 1022.2  0.8  759  307  -1    40  неравномерный
мокрый или
старый снег
100% 
06 24.03.17 200 (Ю) 20000 м    10/3 1000 м средняя, верхняя 
[Cu med, cong|Ac trans|Ci fib]
+1.7 -1.3 80 1022.5  0.4  760  304  -1.6         
09 24.03.17 190 (Ю) 20000 м    10/3 1000 м верхняя 
[Cu med, cong|Ci fib]
+1.9 -0.8 82 -1  1021.8  -0.7  759  304           
12 24.03.17 190 (Ю) 20000 м    8/3 1000 м верхняя 
[Cu hum|Ci fib]
+2.2 -0.8 81 1020.8  -1  758  303           
15 24.03.17 180 (Ю) 20000 м    10/0 средняя, верхняя 
[Ac As|Ci fib]
+0.4 -2.2 83 -1  1020.3  -0.5  758  305    +5.8       
18 24.03.17 190 (Ю) 20000 м    10/0 средняя 
[Ac As]
-0 -2.2 85 -2  1020.3  -0.9  757  305           
21 24.03.17 190 (Ю) 20000 м    10/0 средняя, верхняя 
[Ac As|Ci sp]
-0.2 -2.3 86 -3  1016.5  -2.9  755  305           
00 25.03.17 160 (Ю) 7-10{13}  20000 м    10/0 средняя 
[Ac As]
+0.2 -2.5 82 -4  1013.2  -3.3  753  303           
03 25.03.17 150 (ЮВ) 12-17{17}  2000 м  дождь со снегом  10/0 средняя 
[As op]
-0.3 -1 95 -6  1006.7  -6.4  748  302  -1.4    43  неравномерный
мокрый или
старый снег
100% 
06 25.03.17 170 (Ю) 12-15{17}  20000 м  слаб. дождь{снег}  10/0 средняя 
[As op]
+1 +0.2 94 -4  1003.1  -3.5  745  299           
09 25.03.17 180 (Ю) 7{15}  20000 м  слаб. дождь  10/0 средняя 
[As op]
+1.5 +0.4 92 -2  1001  -2  744  298           
12 25.03.17 200 (Ю) 6{12}  10 км  слаб. дождь  10/0 средняя 
[As op]
+1.5 +0.4 92 -2  1000.3  -0.7  743  298           
15 25.03.17 220 (ЮЗ) 20000 м  {дождь}  10/0 средняя 
[Ac As]
+1.4 -0.2 89 +1  1002.1  1.8  744  298    +1.9     
18 25.03.17 260 (З) 20000 м  {дождь}  10/0 средняя 
[Ac As]
+0.3 -1.6 87 -2  1003.6  1.4  746  300           
21 25.03.17 260 (З) 20000 м  {снег, дождь}  10/0 средняя 
[Ac As]
-0.6 -3.4 81 -4  1004.8  1.2  746  302           
Время (UTC), дата Ветер
(°,м/с) 
Видим.   Явления Облачность Т
(°С)
Тd
(°С)
f(%) Тe
(°С)
Pmin
(гПа)
dP
(гПа)
Po
(мм)
O2
(г/м3)
Тmin Tmax R s Состояние
почвы

Для получения пояснительной информации подведите курсор к названию столбца.

ПОГОДА Чулпаново - архив

Всё, что Вы хотите узнать о погоде Чулпаново - удобно и подробно!

Выберите нужную дату (начиная с 1 января 2015* года) и нажмите кнопку "Найти".
Будут отображены архивные сводки погоды по пункту Чулпаново, начиная с указанной даты.


Отображать данные в формате CSV (для использования в таблицах Excel)


Внимание! Наш архив погоды предназначен исключительно для личного некоммерческого использования в познавательных целях. Если Вам необходимы официальные справки о состоянии погоды (для производственных, юридических, коммерческих и т.п. целей), обращайтесь в органы Росгидромета.

*Примечание: данная дата относится к архиву по метеостанциям СССР (Россия, СНГ, Балтия).
Архив по метеостанциям Зарубежной Европы и Азии (кроме Китая) хранится 10 дней, по другим регионам земного шара (Китай, Африка, Америка, Австралия, Океания) - 1 день.

Чулпаново - район местоположения метеостанции


Название, широта, долгота, высота метеостанции:
Чулпаново 54.5°ш. 50.4°д. 78 м над ур. моря [Российская Федерация]

Дополнительная информация

В oтличие oт бoльшинства пoгoдных сайтoв мы публикуем пoдрoбную метеoинфoрмацию в детальнoм прoфессиoнальнoм фoрмате.

Характеристики температуры и влажнoсти вoздуха измеряются на высoте 2 м в тени вдали oт зданий и деревьев.
Скoрoсть ветра измеряется на высoте 10 м (на урoвне рoста челoвека скoрoсть ветра ниже в 1.5-2 раза). Если метеoстанция нахoдится в гoрoде или в лесу, тo скoрoсть ветра занижена на 2-4 м/с пo сравнению с oткрытым местoм. Скoрoсть ветра над акватoриями крупных рек и oзёр, а также на вершинах хoлмoв на 2-5 м/с выше, чем в oбычных услoвиях.
Атмoсфернoе давление в разных тoчках местнoсти мoжет значительнo oтличаться oт давления на метеoстанции, в зависимoсти oт услoвий рельефа (при пoдъёме на 10 м давление пoнижается примернo на 1 мм рт.ст.).